TimeMDT,TemperatureF,Dew PointF,Humidity,Sea Level PressureIn,VisibilityMPH,Wind Direction,Wind SpeedMPH,Gust SpeedMPH,PrecipitationIn,Events,Conditions,WindDirDegrees,DateUTC
12:56 AM,52.0,35.1,53,30.03,-9999.0,Calm,Calm,-,N/A,,Unknown,0,2013-08-20 06:56:00
1:56 AM,48.9,35.1,59,30.03,-9999.0,Calm,Calm,-,N/A,,Unknown,0,2013-08-20 07:56:00
2:56 AM,46.9,35.1,63,30.02,-9999.0,NW,3.5,-,N/A,,Unknown,310,2013-08-20 08:56:00
3:56 AM,46.0,36.0,68,30.03,-9999.0,West,3.5,-,N/A,,Unknown,280,2013-08-20 09:56:00
4:56 AM,45.0,36.0,71,30.04,-9999.0,Calm,Calm,-,N/A,,Unknown,0,2013-08-20 10:56:00
5:56 AM,45.0,36.0,71,30.05,-9999.0,Calm,Calm,-,N/A,,Unknown,0,2013-08-20 11:56:00
6:56 AM,43.0,37.0,80,30.08,-9999.0,NW,3.5,-,N/A,,Unknown,310,2013-08-20 12:56:00
7:56 AM,48.0,39.0,71,30.08,-9999.0,Calm,Calm,-,N/A,,Unknown,0,2013-08-20 13:56:00
8:56 AM,61.0,42.1,50,30.04,-9999.0,Calm,Calm,-,N/A,,Unknown,0,2013-08-20 14:56:00
9:56 AM,64.0,44.1,48,30.04,-9999.0,Calm,Calm,-,N/A,,Unknown,0,2013-08-20 15:56:00
10:56 AM,66.0,44.1,45,30.05,-9999.0,ESE,4.6,-,N/A,,Unknown,110,2013-08-20 16:56:00
11:56 AM,69.1,44.1,40,30.05,-9999.0,Variable,5.8,-,N/A,,Unknown,0,2013-08-20 17:56:00
12:56 PM,73.0,39.9,30,30.02,-9999.0,Variable,4.6,-,N/A,,Unknown,0,2013-08-20 18:56:00
1:56 PM,78.1,24.1,14,30.00,-9999.0,Variable,4.6,-,N/A,,Unknown,0,2013-08-20 19:56:00
2:56 PM,80.1,23.0,12,29.99,-9999.0,Variable,3.5,-,N/A,,Unknown,0,2013-08-20 20:56:00
3:56 PM,80.1,21.0,11,29.99,-9999.0,Variable,4.6,16.1,N/A,,Unknown,0,2013-08-20 21:56:00
4:56 PM,80.1,24.1,13,29.98,-9999.0,West,9.2,-,N/A,,Unknown,280,2013-08-20 22:56:00
5:56 PM,77.0,24.1,14,29.99,-9999.0,Variable,6.9,-,N/A,,Unknown,0,2013-08-20 23:56:00
6:56 PM,75.9,25.0,15,30.00,-9999.0,Variable,4.6,-,N/A,,Unknown,0,2013-08-21 00:56:00
7:56 PM,73.0,28.9,20,30.01,-9999.0,Variable,3.5,-,N/A,,Unknown,0,2013-08-21 01:56:00
8:56 PM,68.0,30.0,24,29.99,-9999.0,Calm,Calm,-,N/A,,Unknown,0,2013-08-21 02:56:00
9:56 PM,59.0,34.0,39,30.04,-9999.0,WNW,3.5,-,N/A,,Unknown,300,2013-08-21 03:56:00
10:56 PM,64.0,30.9,29,30.02,-9999.0,Variable,3.5,-,N/A,,Unknown,0,2013-08-21 04:56:00
11:56 PM,55.9,35.1,45,30.05,-9999.0,Calm,Calm,-,N/A,,Unknown,0,2013-08-21 05:56:00